Location: Wanzleben
(52.0609°N, 11.4408°E)
Time: 06:48:21
(UTC+00:00)

Cosmos 2142 Rocket - Pass Details

Date: 18 September 2020
Orbit: 952 x 1005 km, 82.9° (Epoch: 19 October)

Event Time Altitude Azimuth Distance (km) Brightness Sun altitude
Exits shadow 20:21:20 52° 182° (S) 1,215 4.7 -26.1°
Maximum altitude 20:23:02 85° 99° (E) 992 4.4 -26.2°
Drops below altitude 10° 20:29:19 10° 11° (N) 2,728 7.2 -26.9°
Sets 20:31:49 0° 11° (N) 3,672 8.0 -27.2°
